| time (UTC) | temp F | wind direction | speed knots | gust knots | rain 1hr in | rain 24hr in | rain mn in | humidity % | barometer mb |
| 20260508133100 | 62 | 82 | 0.9 | 2.6 | 0.00 | 0.00 | 0.00 | 75 | 1017.9 |
| 20260508132549 | 62 | 18 | 0.9 | 2.6 | 0.00 | 0.00 | 0.00 | 75 | 1018.0 |
| 20260508132050 | 61 | 79 | 0.0 | 1.7 | 0.00 | 0.00 | 0.00 | 78 | 1018.0 |
| 20260508131558 | 60 | 59 | 0.0 | 1.7 | 0.00 | 0.00 | 0.00 | 78 | 1018.0 |
| 20260508131050 | 60 | 70 | 0.0 | 0.9 | 0.00 | 0.00 | 0.00 | 83 | 1017.9 |
| 20260508130549 | 58 | 69 | 0.0 | 1.7 | 0.00 | 0.00 | 0.00 | 85 | 1017.9 |
| 20260508130107 | 57 | 69 | 0.0 | 2.6 | 0.00 | 0.00 | 0.00 | 90 | 1017.9 |
| 20260508125552 | 55 | 80 | 0.0 | 2.6 | 0.00 | 0.00 | 0.00 | 92 | 1018.0 |
| 20260508125051 | 53 | 67 | 0.9 | 2.6 | 0.00 | 0.00 | 0.00 | 95 | 1018.0 |
| 20260508124554 | 52 | 57 | 0.0 | 1.7 | 0.00 | 0.00 | 0.00 | 99 | 1017.9 |
| 20260508124051 | 51 | 79 | 0.0 | 1.7 | 0.00 | 0.00 | 0.00 | 100 | 1018.0 |
| 20260508123555 | 50 | 60 | 0.0 | 1.7 | 0.00 | 0.00 | 0.00 | 100 | 1017.9 |
| 20260508123056 | 48 | 0 | 0.9 | 1.7 | 0.00 | 0.00 | 0.00 | 100 | 1018.0 |
| 20260508122551 | 48 | 72 | 0.0 | 1.7 | 0.00 | 0.00 | 0.00 | 100 | 1017.9 |
| 20260508122052 | 47 | 59 | 0.0 | 0.9 | 0.00 | 0.00 | 0.00 | 100 | 1018.0 |
| 20260508121552 | 46 | 116 | 0.0 | 0.9 | 0.00 | 0.00 | 0.00 | 100 | 1018.0 |
| 20260508121051 | 46 | 116 | 0.0 | 0.9 | 0.00 | 0.00 | 0.00 | 100 | 1017.8 |
| 20260508120549 | 46 | 0 | 0.0 | 0.9 | 0.00 | 0.00 | 0.00 | 100 | 1017.8 |
| 20260508120050 | 45 | 0 | 0.0 | 0.9 | 0.00 | 0.00 | 0.00 | 100 | 1017.8 |
| 20260508115552 | 44 | 116 | 0.0 | 0.0 | 0.00 | 0.00 | 0.00 | 99 | 1017.7 |
| 20260508115051 | 44 | 0 | 0.0 | 0.0 | 0.00 | 0.00 | 0.00 | 99 | 1017.6 |
| 20260508114556 | 44 | 0 | 0.0 | 0.0 | 0.00 | 0.00 | 0.00 | 99 | 1017.6 |
| 20260508114051 | 44 | 0 | 0.0 | 0.0 | 0.00 | 0.00 | 0.00 | 99 | 1017.4 |
| 20260508113551 | 44 | 0 | 0.0 | 0.0 | 0.00 | 0.00 | 0.00 | 99 | 1017.4 |
| 20260508113058 | 44 | 0 | 0.0 | 0.0 | 0.00 | 0.00 | 0.00 | 99 | 1017.3 |
| 20260508112551 | 44 | 0 | 0.0 | 0.0 | 0.00 | 0.00 | 0.00 | 99 | 1017.2 |
| 20260508112051 | 44 | 0 | 0.0 | 0.0 | 0.00 | 0.00 | 0.00 | 99 | 1017.2 |
| 20260508111553 | 44 | 0 | 0.0 | 0.0 | 0.00 | 0.00 | 0.00 | 99 | 1017.0 |
| 20260508111052 | 44 | 0 | 0.0 | 0.0 | 0.00 | 0.00 | 0.00 | 99 | 1017.1 |
| 20260508110550 | 44 | 0 | 0.0 | 0.0 | 0.00 | 0.00 | 0.00 | 99 | 1017.1 |
| 20260508110110 | 44 | 0 | 0.0 | 0.0 | 0.00 | 0.00 | 0.00 | 99 | 1017.1 |
| 20260508105552 | 44 | 0 | 0.0 | 0.0 | 0.00 | 0.00 | 0.00 | 99 | 1017.1 |
| 20260508105053 | 44 | 0 | 0.0 | 0.0 | 0.00 | 0.00 | 0.00 | 99 | 1017.0 |
| 20260508104557 | 44 | 0 | 0.0 | 0.0 | 0.00 | 0.00 | 0.00 | 99 | 1017.0 |
| 20260508104049 | 44 | 0 | 0.0 | 0.0 | 0.00 | 0.00 | 0.00 | 99 | 1017.0 |
| 20260508103551 | 44 | 0 | 0.0 | 0.0 | 0.00 | 0.00 | 0.00 | 99 | 1017.0 |
| 20260508103054 | 44 | 0 | 0.0 | 0.0 | 0.00 | 0.00 | 0.00 | 99 | 1017.2 |
| 20260508102550 | 44 | 0 | 0.0 | 0.0 | 0.00 | 0.00 | 0.00 | 99 | 1017.1 |
| 20260508102052 | 44 | 0 | 0.0 | 0.0 | 0.00 | 0.00 | 0.00 | 99 | 1017.1 |
| 20260508101556 | 45 | 0 | 0.0 | 0.0 | 0.00 | 0.00 | 0.00 | 99 | 1017.2 |
| 20260508101052 | 45 | 0 | 0.0 | 0.0 | 0.00 | 0.00 | 0.00 | 99 | 1017.1 |
| 20260508100551 | 45 | 0 | 0.0 | 0.0 | 0.00 | 0.00 | 0.00 | 99 | 1017.1 |
| 20260508100054 | 45 | 0 | 0.0 | 0.0 | 0.00 | 0.00 | 0.00 | 99 | 1017.1 |
| 20260508095552 | 45 | 0 | 0.0 | 0.0 | 0.00 | 0.00 | 0.00 | 99 | 1017.2 |
| 20260508095054 | 45 | 0 | 0.0 | 0.0 | 0.00 | 0.00 | 0.00 | 99 | 1017.1 |
| 20260508094558 | 45 | 0 | 0.0 | 0.0 | 0.00 | 0.00 | 0.00 | 99 | 1017.1 |
| 20260508094051 | 45 | 0 | 0.0 | 0.0 | 0.00 | 0.00 | 0.00 | 99 | 1017.0 |
| 20260508093552 | 45 | 0 | 0.0 | 0.0 | 0.00 | 0.00 | 0.00 | 99 | 1017.0 |
| 20260508093058 | 45 | 0 | 0.0 | 0.0 | 0.00 | 0.00 | 0.00 | 98 | 1017.1 |
| 20260508092552 | 45 | 0 | 0.0 | 0.0 | 0.00 | 0.00 | 0.00 | 98 | 1017.1 |
| 20260508092049 | 46 | 0 | 0.0 | 0.0 | 0.00 | 0.00 | 0.00 | 99 | 1017.2 |
| 20260508091552 | 46 | 0 | 0.0 | 0.0 | 0.00 | 0.00 | 0.00 | 99 | 1017.0 |
| 20260508091051 | 46 | 0 | 0.0 | 0.0 | 0.00 | 0.00 | 0.00 | 99 | 1016.9 |
| 20260508090550 | 46 | 0 | 0.0 | 0.0 | 0.00 | 0.00 | 0.00 | 99 | 1016.8 |
| 20260508090107 | 46 | 0 | 0.0 | 0.0 | 0.00 | 0.00 | 0.00 | 99 | 1016.9 |
| 20260508085551 | 46 | 0 | 0.0 | 0.0 | 0.00 | 0.00 | 0.00 | 99 | 1016.9 |
| 20260508085050 | 46 | 0 | 0.0 | 0.0 | 0.00 | 0.00 | 0.00 | 99 | 1016.9 |
| 20260508084554 | 46 | 0 | 0.0 | 0.0 | 0.00 | 0.00 | 0.00 | 99 | 1016.7 |
| 20260508084052 | 46 | 0 | 0.0 | 0.0 | 0.00 | 0.00 | 0.00 | 99 | 1016.7 |
| 20260508083551 | 46 | 0 | 0.0 | 0.0 | 0.00 | 0.00 | 0.00 | 99 | 1016.7 |
| 20260508083051 | 46 | 0 | 0.0 | 0.0 | 0.00 | 0.00 | 0.00 | 98 | 1016.7 |
| 20260508082550 | 46 | 0 | 0.0 | 0.0 | 0.00 | 0.00 | 0.00 | 98 | 1016.7 |
| 20260508082051 | 46 | 0 | 0.0 | 0.0 | 0.00 | 0.00 | 0.00 | 98 | 1016.7 |
| 20260508081559 | 47 | 0 | 0.0 | 0.0 | 0.00 | 0.00 | 0.00 | 98 | 1016.7 |
| 20260508081051 | 47 | 0 | 0.0 | 0.0 | 0.00 | 0.00 | 0.00 | 98 | 1016.8 |
| 20260508080552 | 47 | 0 | 0.0 | 0.0 | 0.00 | 0.00 | 0.00 | 98 | 1016.8 |
| 20260508080053 | 47 | 0 | 0.0 | 0.0 | 0.00 | 0.00 | 0.00 | 98 | 1016.8 |
| 20260508075552 | 47 | 0 | 0.0 | 0.0 | 0.00 | 0.00 | 0.00 | 98 | 1017.0 |
| 20260508075051 | 47 | 0 | 0.0 | 0.0 | 0.00 | 0.00 | 0.00 | 98 | 1016.9 |
| 20260508074554 | 48 | 0 | 0.0 | 0.0 | 0.00 | 0.00 | 0.00 | 98 | 1016.9 |
| 20260508074052 | 48 | 0 | 0.0 | 0.0 | 0.00 | 0.00 | 0.00 | 98 | 1016.9 |
| 20260508073552 | 48 | 0 | 0.0 | 0.0 | 0.00 | 0.00 | 0.00 | 98 | 1016.9 |
| 20260508073056 | 48 | 0 | 0.0 | 0.0 | 0.00 | 0.00 | 0.00 | 98 | 1017.0 |
| 20260508072552 | 48 | 0 | 0.0 | 0.0 | 0.00 | 0.00 | 0.00 | 98 | 1016.9 |
| 20260508072050 | 48 | 0 | 0.0 | 0.0 | 0.00 | 0.00 | 0.00 | 98 | 1017.0 |
| 20260508071554 | 48 | 0 | 0.0 | 0.0 | 0.00 | 0.00 | 0.00 | 98 | 1017.1 |
| 20260508071052 | 48 | 0 | 0.0 | 0.9 | 0.00 | 0.00 | 0.00 | 98 | 1017.0 |
| 20260508070552 | 48 | 0 | 0.0 | 0.9 | 0.00 | 0.00 | 0.00 | 98 | 1017.0 |
| 20260508070056 | 49 | 0 | 0.0 | 0.9 | 0.00 | 0.00 | 0.00 | 98 | 1017.1 |
| 20260508065555 | 49 | 0 | 0.0 | 0.0 | 0.00 | 0.00 | 0.00 | 98 | 1017.2 |
| 20260508065051 | 49 | 0 | 0.0 | 0.9 | 0.00 | 0.00 | 0.00 | 98 | 1017.2 |
| 20260508064554 | 49 | 0 | 0.0 | 0.9 | 0.00 | 0.00 | 0.00 | 98 | 1017.4 |
| 20260508064051 | 49 | 0 | 0.0 | 0.0 | 0.00 | 0.00 | 0.00 | 98 | 1017.4 |
| 20260508063552 | 49 | 0 | 0.0 | 0.0 | 0.00 | 0.00 | 0.00 | 98 | 1017.4 |
| 20260508063056 | 49 | 0 | 0.0 | 0.0 | 0.00 | 0.00 | 0.00 | 98 | 1017.4 |
| 20260508062551 | 49 | 0 | 0.0 | 0.0 | 0.00 | 0.00 | 0.00 | 98 | 1017.5 |
| 20260508062050 | 49 | 0 | 0.0 | 0.0 | 0.00 | 0.00 | 0.00 | 97 | 1017.4 |
| 20260508061556 | 49 | 0 | 0.0 | 0.0 | 0.00 | 0.00 | 0.00 | 97 | 1017.4 |
| 20260508061050 | 49 | 0 | 0.0 | 0.0 | 0.00 | 0.00 | 0.00 | 97 | 1017.4 |
| 20260508060550 | 50 | 0 | 0.0 | 0.0 | 0.00 | 0.00 | 0.00 | 97 | 1017.4 |
| 20260508060054 | 50 | 0 | 0.0 | 0.0 | 0.00 | 0.00 | 0.00 | 97 | 1017.4 |
| 20260508055550 | 50 | 0 | 0.0 | 0.0 | 0.00 | 0.00 | 0.00 | 97 | 1017.5 |
| 20260508055052 | 50 | 0 | 0.0 | 0.0 | 0.00 | 0.00 | 0.00 | 97 | 1017.5 |
| 20260508054635 | 50 | 0 | 0.0 | 0.0 | 0.00 | 0.00 | 0.00 | 96 | 1017.4 |
| 20260508054051 | 50 | 0 | 0.0 | 0.0 | 0.00 | 0.00 | 0.00 | 96 | 1017.5 |
| 20260508053555 | 50 | 0 | 0.0 | 0.9 | 0.00 | 0.00 | 0.00 | 96 | 1017.4 |
| 20260508053051 | 50 | 0 | 0.0 | 0.9 | 0.00 | 0.00 | 0.00 | 96 | 1017.4 |
| 20260508052555 | 50 | 0 | 0.0 | 0.9 | 0.00 | 0.00 | 0.00 | 97 | 1017.6 |
| 20260508052051 | 50 | 116 | 0.0 | 0.0 | 0.00 | 0.00 | 0.00 | 96 | 1017.5 |
| 20260508051551 | 50 | 0 | 0.0 | 0.0 | 0.00 | 0.00 | 0.00 | 96 | 1017.6 |
| 20260508051051 | 50 | 0 | 0.0 | 0.0 | 0.00 | 0.00 | 0.00 | 96 | 1017.4 |
| 20260508050553 | 51 | 0 | 0.0 | 0.0 | 0.00 | 0.00 | 0.00 | 96 | 1017.5 |
| 20260508050054 | 50 | 0 | 0.0 | 0.0 | 0.00 | 0.00 | 0.00 | 95 | 1017.6 |
| 20260508045551 | 51 | 0 | 0.0 | 0.0 | 0.00 | 0.00 | 0.00 | 95 | 1017.5 |
| 20260508045051 | 51 | 0 | 0.0 | 0.9 | 0.00 | 0.00 | 0.00 | 95 | 1017.5 |
| 20260508044600 | 51 | 0 | 0.0 | 0.9 | 0.00 | 0.00 | 0.00 | 95 | 1017.6 |
| 20260508044050 | 51 | 116 | 0.0 | 0.9 | 0.00 | 0.00 | 0.00 | 95 | 1017.6 |
| 20260508043550 | 51 | 0 | 0.0 | 0.9 | 0.00 | 0.00 | 0.00 | 95 | 1017.7 |
| 20260508043050 | 51 | 0 | 0.0 | 0.0 | 0.00 | 0.00 | 0.00 | 95 | 1017.8 |
| 20260508042550 | 51 | 0 | 0.0 | 0.0 | 0.00 | 0.00 | 0.00 | 94 | 1017.7 |
| 20260508042051 | 51 | 0 | 0.0 | 0.9 | 0.00 | 0.00 | 0.00 | 95 | 1017.7 |
| 20260508041600 | 51 | 0 | 0.0 | 0.9 | 0.00 | 0.00 | 0.00 | 94 | 1017.7 |
| 20260508041052 | 52 | 0 | 0.0 | 0.9 | 0.00 | 0.00 | 0.00 | 94 | 1017.7 |
| 20260508040551 | 52 | 0 | 0.0 | 0.9 | 0.00 | 0.00 | 0.00 | 94 | 1017.7 |
| 20260508040057 | 52 | 116 | 0.0 | 0.9 | 0.00 | 0.00 | 0.00 | 94 | 1017.7 |
| 20260508035551 | 52 | 117 | 0.0 | 0.9 | 0.00 | 0.00 | 0.00 | 94 | 1017.8 |
| 20260508035051 | 52 | 117 | 0.0 | 0.0 | 0.00 | 0.00 | 0.00 | 94 | 1017.6 |
| 20260508034602 | 52 | 0 | 0.0 | 0.0 | 0.00 | 0.00 | 0.00 | 94 | 1017.5 |
| 20260508034051 | 52 | 0 | 0.0 | 0.0 | 0.00 | 0.00 | 0.00 | 93 | 1017.6 |
| 20260508033552 | 52 | 0 | 0.0 | 0.9 | 0.00 | 0.00 | 0.00 | 93 | 1017.5 |
| 20260508033051 | 52 | 0 | 0.0 | 0.9 | 0.00 | 0.00 | 0.00 | 93 | 1017.6 |
| 20260508032556 | 52 | 0 | 0.0 | 0.0 | 0.00 | 0.00 | 0.00 | 93 | 1017.5 |
| 20260508032055 | 53 | 0 | 0.0 | 0.0 | 0.00 | 0.00 | 0.00 | 92 | 1017.7 |
| 20260508031602 | 53 | 0 | 0.0 | 0.0 | 0.00 | 0.00 | 0.00 | 93 | 1017.8 |
| 20260508031053 | 53 | 0 | 0.0 | 0.0 | 0.00 | 0.00 | 0.00 | 92 | 1017.7 |
| 20260508030552 | 53 | 0 | 0.0 | 0.0 | 0.00 | 0.00 | 0.00 | 92 | 1017.7 |
| 20260508030112 | 53 | 0 | 0.0 | 0.0 | 0.00 | 0.00 | 0.00 | 91 | 1017.6 |
| 20260508025551 | 54 | 0 | 0.0 | 0.0 | 0.00 | 0.00 | 0.00 | 90 | 1017.6 |
| 20260508025051 | 54 | 0 | 0.0 | 0.0 | 0.00 | 0.00 | 0.00 | 90 | 1017.7 |
| 20260508024606 | 54 | 0 | 0.0 | 0.0 | 0.00 | 0.00 | 0.00 | 90 | 1017.6 |
| 20260508024051 | 55 | 0 | 0.0 | 0.0 | 0.00 | 0.00 | 0.00 | 89 | 1017.6 |
| 20260508023553 | 55 | 0 | 0.0 | 0.0 | 0.00 | 0.00 | 0.00 | 88 | 1017.6 |
| 20260508023103 | 55 | 0 | 0.0 | 0.0 | 0.00 | 0.00 | 0.00 | 88 | 1017.4 |
| 20260508022551 | 55 | 0 | 0.0 | 0.0 | 0.00 | 0.00 | 0.00 | 86 | 1017.3 |
| 20260508022051 | 55 | 0 | 0.0 | 0.0 | 0.00 | 0.00 | 0.00 | 86 | 1017.3 |
| 20260508021619 | 56 | 0 | 0.0 | 0.0 | 0.00 | 0.00 | 0.00 | 86 | 1017.2 |
| 20260508021055 | 56 | 0 | 0.0 | 0.0 | 0.00 | 0.00 | 0.00 | 86 | 1017.2 |
| 20260508020551 | 56 | 0 | 0.0 | 0.0 | 0.00 | 0.00 | 0.00 | 84 | 1017.2 |
| 20260508020057 | 57 | 0 | 0.0 | 0.0 | 0.00 | 0.00 | 0.00 | 83 | 1017.1 |
| 20260508015552 | 57 | 0 | 0.0 | 0.0 | 0.00 | 0.00 | 0.00 | 83 | 1017.0 |
| 20260508015052 | 57 | 0 | 0.0 | 0.9 | 0.00 | 0.00 | 0.00 | 82 | 1017.1 |
| 20260508014559 | 57 | 0 | 0.0 | 0.9 | 0.00 | 0.00 | 0.00 | 81 | 1016.8 |
| 20260508014052 | 58 | 0 | 0.0 | 0.0 | 0.00 | 0.00 | 0.00 | 79 | 1016.9 |
| 20260508013551 | 58 | 0 | 0.0 | 0.0 | 0.00 | 0.00 | 0.00 | 78 | 1016.8 |
| 20260508013056 | 58 | 0 | 0.0 | 0.0 | 0.00 | 0.00 | 0.00 | 78 | 1016.7 |
| 20260508012551 | 59 | 0 | 0.0 | 0.0 | 0.00 | 0.00 | 0.00 | 77 | 1016.7 |
| 20260508012053 | 59 | 0 | 0.0 | 0.0 | 0.00 | 0.00 | 0.00 | 76 | 1016.7 |
| 20260508011558 | 59 | 0 | 0.0 | 0.0 | 0.00 | 0.00 | 0.00 | 75 | 1016.7 |
| 20260508011054 | 60 | 0 | 0.0 | 0.0 | 0.00 | 0.00 | 0.00 | 70 | 1016.7 |
| 20260508010551 | 60 | 0 | 0.0 | 0.0 | 0.00 | 0.00 | 0.00 | 68 | 1016.8 |
| 20260508010057 | 61 | 0 | 0.0 | 0.0 | 0.00 | 0.00 | 0.00 | 65 | 1016.6 |
| 20260508005553 | 61 | 0 | 0.0 | 0.0 | 0.00 | 0.00 | 0.00 | 64 | 1016.5 |
| 20260508005055 | 62 | 0 | 0.0 | 0.9 | 0.00 | 0.00 | 0.00 | 61 | 1016.5 |
| 20260508004558 | 62 | 0 | 0.0 | 0.9 | 0.00 | 0.00 | 0.00 | 60 | 1016.5 |
| 20260508004052 | 63 | 0 | 0.0 | 0.9 | 0.00 | 0.00 | 0.00 | 59 | 1016.6 |
| 20260508003551 | 63 | 0 | 0.0 | 0.9 | 0.00 | 0.00 | 0.00 | 59 | 1016.6 |
| 20260508003105 | 64 | 0 | 0.0 | 0.9 | 0.00 | 0.00 | 0.00 | 59 | 1016.7 |
| 20260508002549 | 64 | 117 | 0.0 | 0.9 | 0.00 | 0.00 | 0.00 | 60 | 1016.7 |
| 20260508002050 | 65 | 117 | 0.0 | 0.9 | 0.00 | 0.00 | 0.00 | 57 | 1016.5 |
| 20260508001555 | 66 | 124 | 0.0 | 1.7 | 0.00 | 0.00 | 0.00 | 54 | 1016.4 |
| 20260508001052 | 67 | 121 | 0.0 | 1.7 | 0.00 | 0.00 | 0.00 | 54 | 1016.5 |
| 20260508000551 | 68 | 155 | 0.9 | 1.7 | 0.00 | 0.00 | 0.00 | 53 | 1016.5 |
| 20260508000051 | 69 | 97 | 0.0 | 1.7 | 0.00 | 0.00 | 0.00 | 52 | 1016.4 |
| 20260507235552 | 69 | 0 | 0.9 | 1.7 | 0.00 | 0.01 | 0.00 | 51 | 1016.3 |
| 20260507235052 | 69 | 118 | 0.0 | 1.7 | 0.00 | 0.01 | 0.00 | 53 | 1016.1 |
| 20260507234551 | 69 | 101 | 0.0 | 1.7 | 0.00 | 0.01 | 0.00 | 52 | 1016.1 |
| 20260507234056 | 69 | 120 | 0.0 | 3.5 | 0.00 | 0.01 | 0.00 | 50 | 1016.3 |
| 20260507233552 | 69 | 118 | 0.0 | 3.5 | 0.00 | 0.01 | 0.00 | 53 | 1016.4 |
| 20260507233054 | 69 | 100 | 0.0 | 2.6 | 0.00 | 0.01 | 0.00 | 51 | 1016.4 |
| 20260507232552 | 69 | 172 | 0.9 | 2.6 | 0.00 | 0.01 | 0.00 | 49 | 1016.4 |
| 20260507232051 | 69 | 0 | 0.9 | 2.6 | 0.00 | 0.01 | 0.00 | 50 | 1016.3 |
| 20260507231559 | 70 | 103 | 0.9 | 2.6 | 0.00 | 0.01 | 0.00 | 49 | 1016.2 |
| 20260507231051 | 70 | 157 | 0.9 | 2.6 | 0.00 | 0.01 | 0.00 | 47 | 1016.2 |
| 20260507230553 | 71 | 155 | 0.0 | 2.6 | 0.00 | 0.01 | 0.00 | 47 | 1016.3 |
| 20260507230056 | 71 | 89 | 0.9 | 3.5 | 0.00 | 0.01 | 0.00 | 49 | 1016.3 |
| 20260507225554 | 71 | 84 | 0.9 | 3.5 | 0.00 | 0.01 | 0.00 | 48 | 1016.3 |
| 20260507225053 | 71 | 110 | 0.9 | 3.5 | 0.00 | 0.01 | 0.00 | 47 | 1016.5 |
| 20260507224601 | 71 | 96 | 0.9 | 3.5 | 0.00 | 0.01 | 0.00 | 50 | 1016.4 |
| 20260507224052 | 71 | 126 | 0.9 | 3.5 | 0.00 | 0.01 | 0.00 | 51 | 1016.4 |
| 20260507223552 | 71 | 119 | 0.9 | 3.5 | 0.00 | 0.01 | 0.00 | 46 | 1016.3 |
| 20260507223059 | 71 | 127 | 0.9 | 3.5 | 0.00 | 0.01 | 0.00 | 48 | 1016.3 |
| 20260507222555 | 72 | 213 | 0.0 | 2.6 | 0.00 | 0.01 | 0.00 | 47 | 1016.3 |
| 20260507222052 | 72 | 91 | 0.9 | 3.5 | 0.00 | 0.01 | 0.00 | 50 | 1016.4 |
| 20260507221552 | 72 | 117 | 0.0 | 3.5 | 0.00 | 0.01 | 0.00 | 46 | 1016.4 |
| 20260507221052 | 72 | 103 | 0.9 | 2.6 | 0.00 | 0.01 | 0.00 | 49 | 1016.4 |
| 20260507220553 | 72 | 130 | 0.9 | 3.5 | 0.00 | 0.01 | 0.00 | 46 | 1016.4 |
| 20260507220054 | 71 | 127 | 0.0 | 5.2 | 0.00 | 0.01 | 0.00 | 48 | 1016.4 |
| 20260507215557 | 71 | 160 | 0.9 | 5.2 | 0.00 | 0.02 | 0.00 | 44 | 1016.4 |
| 20260507215053 | 71 | 126 | 0.9 | 4.3 | 0.00 | 0.02 | 0.00 | 48 | 1016.3 |
| 20260507214559 | 70 | 116 | 1.7 | 4.3 | 0.00 | 0.02 | 0.00 | 47 | 1016.3 |
| 20260507214053 | 70 | 179 | 0.9 | 5.2 | 0.00 | 0.02 | 0.00 | 45 | 1016.3 |
| 20260507213548 | 71 | 219 | 1.7 | 5.2 | 0.00 | 0.02 | 0.00 | 49 | 1016.4 |
| 20260507213054 | 71 | 108 | 1.7 | 5.2 | 0.00 | 0.02 | 0.00 | 49 | 1016.2 |
| 20260507212550 | 71 | 167 | 1.7 | 4.3 | 0.00 | 0.02 | 0.00 | 46 | 1016.2 |
| 20260507212048 | 71 | 104 | 1.7 | 4.3 | 0.00 | 0.02 | 0.00 | 51 | 1016.3 |
| 20260507211558 | 71 | 94 | 1.7 | 5.2 | 0.00 | 0.02 | 0.00 | 53 | 1016.3 |
| 20260507211048 | 71 | 162 | 1.7 | 5.2 | 0.00 | 0.02 | 0.00 | 47 | 1016.2 |
| 20260507210552 | 70 | 141 | 0.9 | 5.2 | 0.00 | 0.02 | 0.00 | 52 | 1016.2 |
| 20260507210119 | 71 | 167 | 1.7 | 5.2 | 0.00 | 0.02 | 0.00 | 52 | 1016.3 |
| 20260507205552 | 70 | 127 | 0.9 | 4.3 | 0.00 | 0.07 | 0.00 | 51 | 1016.2 |
| 20260507205053 | 70 | 148 | 1.7 | 4.3 | 0.00 | 0.07 | 0.00 | 48 | 1016.4 |
| 20260507204602 | 71 | 108 | 1.7 | 4.3 | 0.00 | 0.07 | 0.00 | 52 | 1016.4 |
| 20260507204055 | 71 | 91 | 0.9 | 5.2 | 0.00 | 0.07 | 0.00 | 53 | 1016.4 |
| 20260507203551 | 71 | 155 | 0.0 | 5.2 | 0.00 | 0.07 | 0.00 | 49 | 1016.5 |
| 20260507203058 | 71 | 78 | 2.6 | 5.2 | 0.00 | 0.07 | 0.00 | 52 | 1016.6 |
| 20260507202552 | 71 | 72 | 0.9 | 3.5 | 0.00 | 0.07 | 0.00 | 53 | 1016.7 |
| 20260507202053 | 71 | 132 | 1.7 | 3.5 | 0.00 | 0.07 | 0.00 | 50 | 1016.7 |
| 20260507201603 | 71 | 150 | 0.9 | 2.6 | 0.00 | 0.07 | 0.00 | 52 | 1016.7 |
| 20260507201051 | 71 | 99 | 0.0 | 3.5 | 0.00 | 0.07 | 0.00 | 55 | 1016.7 |
| 20260507200552 | 70 | 117 | 0.9 | 3.5 | 0.00 | 0.07 | 0.00 | 50 | 1016.8 |
| 20260507200105 | 69 | 93 | 1.7 | 5.2 | 0.00 | 0.07 | 0.00 | 51 | 1017.0 |
| 20260507195556 | 70 | 217 | 2.6 | 5.2 | 0.00 | 0.07 | 0.00 | 50 | 1017.0 |
| 20260507195052 | 70 | 205 | 0.9 | 5.2 | 0.00 | 0.07 | 0.00 | 49 | 1016.8 |
| 20260507194552 | 70 | 105 | 0.9 | 7.0 | 0.00 | 0.07 | 0.00 | 52 | 1016.7 |
| 20260507194055 | 70 | 120 | 1.7 | 7.0 | 0.00 | 0.07 | 0.00 | 49 | 1016.7 |
| 20260507193552 | 70 | 179 | 0.9 | 4.3 | 0.00 | 0.07 | 0.00 | 52 | 1016.8 |
| 20260507193110 | 70 | 115 | 0.9 | 3.5 | 0.00 | 0.07 | 0.00 | 49 | 1017.0 |
| 20260507192553 | 70 | 195 | 0.9 | 4.3 | 0.00 | 0.07 | 0.00 | 55 | 1017.0 |
| 20260507192055 | 71 | 113 | 1.7 | 4.3 | 0.00 | 0.07 | 0.00 | 51 | 1017.1 |
| 20260507191557 | 70 | 125 | 1.7 | 6.1 | 0.00 | 0.07 | 0.00 | 50 | 1017.1 |
| 20260507191051 | 71 | 177 | 2.6 | 6.1 | 0.00 | 0.07 | 0.00 | 53 | 1017.1 |
| 20260507190551 | 70 | 120 | 0.9 | 6.1 | 0.00 | 0.07 | 0.00 | 55 | 1017.3 |
| 20260507190053 | 70 | 94 | 1.7 | 4.3 | 0.00 | 0.07 | 0.00 | 53 | 1017.4 |
| 20260507185551 | 70 | 198 | 1.7 | 5.2 | 0.00 | 0.07 | 0.00 | 51 | 1017.3 |
| 20260507185052 | 70 | 274 | 0.9 | 5.2 | 0.00 | 0.07 | 0.00 | 54 | 1017.3 |
| 20260507184551 | 69 | 116 | 1.7 | 6.1 | 0.00 | 0.07 | 0.00 | 52 | 1017.4 |
| 20260507184055 | 69 | 100 | 1.7 | 6.1 | 0.00 | 0.07 | 0.00 | 57 | 1017.3 |
| 20260507183554 | 69 | 168 | 1.7 | 6.1 | 0.00 | 0.07 | 0.00 | 53 | 1017.4 |
| 20260507183100 | 69 | 82 | 1.7 | 6.1 | 0.00 | 0.07 | 0.00 | 55 | 1017.4 |
| 20260507182552 | 69 | 134 | 0.9 | 6.1 | 0.00 | 0.07 | 0.00 | 55 | 1017.5 |
| 20260507182053 | 69 | 165 | 1.7 | 7.0 | 0.00 | 0.07 | 0.00 | 50 | 1017.6 |
| 20260507181556 | 69 | 78 | 2.6 | 7.0 | 0.00 | 0.07 | 0.00 | 58 | 1017.5 |
| 20260507181052 | 69 | 101 | 1.7 | 5.2 | 0.00 | 0.07 | 0.00 | 59 | 1017.6 |
| 20260507180552 | 68 | 90 | 1.7 | 5.2 | 0.00 | 0.07 | 0.00 | 52 | 1017.6 |
| 20260507180059 | 69 | 188 | 0.9 | 3.5 | 0.00 | 0.07 | 0.00 | 62 | 1017.6 |
| 20260507175559 | 69 | 307 | 0.9 | 3.5 | 0.00 | 0.08 | 0.00 | 52 | 1017.8 |
| 20260507175052 | 68 | 72 | 0.9 | 3.5 | 0.00 | 0.08 | 0.00 | 60 | 1017.9 |
| 20260507174608 | 67 | 139 | 0.9 | 5.2 | 0.00 | 0.08 | 0.00 | 54 | 1017.9 |
| 20260507174054 | 68 | 157 | 1.7 | 5.2 | 0.00 | 0.08 | 0.00 | 52 | 1018.0 |
| 20260507173550 | 68 | 140 | 0.9 | 4.3 | 0.00 | 0.08 | 0.00 | 58 | 1018.0 |
| 20260507173134 | 68 | 191 | 1.7 | 4.3 | 0.00 | 0.08 | 0.00 | 54 | 1018.1 |
| 20260507172554 | 68 | 139 | 0.9 | 4.3 | 0.00 | 0.08 | 0.00 | 60 | 1018.1 |
| 20260507172051 | 68 | 74 | 1.7 | 4.3 | 0.00 | 0.08 | 0.00 | 59 | 1018.2 |
| 20260507171553 | 68 | 120 | 1.7 | 6.1 | 0.00 | 0.08 | 0.00 | 57 | 1018.3 |
| 20260507171052 | 67 | 200 | 1.7 | 6.1 | 0.00 | 0.08 | 0.00 | 57 | 1018.3 |
| 20260507170553 | 68 | 195 | 1.7 | 6.1 | 0.00 | 0.08 | 0.00 | 56 | 1018.4 |
| 20260507170055 | 68 | 136 | 0.9 | 5.2 | 0.00 | 0.08 | 0.00 | 56 | 1018.4 |
| 20260507165549 | 67 | 124 | 0.9 | 7.8 | 0.00 | 0.14 | 0.00 | 61 | 1018.4 |
| 20260507165050 | 66 | 148 | 2.6 | 7.8 | 0.00 | 0.14 | 0.00 | 56 | 1018.6 |
| 20260507164600 | 66 | 162 | 2.6 | 6.1 | 0.00 | 0.14 | 0.00 | 56 | 1018.6 |
| 20260507164050 | 66 | 219 | 2.6 | 6.1 | 0.00 | 0.14 | 0.00 | 54 | 1018.7 |
| 20260507163550 | 67 | 138 | 0.9 | 10.4 | 0.00 | 0.14 | 0.00 | 63 | 1018.5 |
| 20260507163053 | 66 | 213 | 1.7 | 10.4 | 0.00 | 0.14 | 0.00 | 59 | 1018.7 |
| 20260507162557 | 66 | 96 | 2.6 | 10.4 | 0.00 | 0.14 | 0.00 | 55 | 1018.6 |
| 20260507162049 | 67 | 64 | 1.7 | 3.5 | 0.00 | 0.14 | 0.00 | 58 | 1018.6 |
| 20260507161608 | 67 | 144 | 0.0 | 3.5 | 0.00 | 0.14 | 0.00 | 64 | 1018.6 |
| 20260507161049 | 66 | 106 | 0.9 | 4.3 | 0.00 | 0.14 | 0.00 | 61 | 1018.6 |
| 20260507160552 | 65 | 172 | 1.7 | 4.3 | 0.00 | 0.14 | 0.00 | 57 | 1018.7 |
| 20260507160104 | 65 | 186 | 0.9 | 4.3 | 0.00 | 0.14 | 0.00 | 61 | 1018.7 |
| 20260507155548 | 65 | 134 | 0.9 | 6.1 | 0.00 | 0.19 | 0.00 | 61 | 1018.6 |
| 20260507155050 | 65 | 126 | 1.7 | 6.1 | 0.00 | 0.19 | 0.00 | 61 | 1018.5 |
| 20260507154552 | 64 | 188 | 2.6 | 6.1 | 0.00 | 0.19 | 0.00 | 57 | 1018.4 |
| 20260507154050 | 65 | 191 | 1.7 | 5.2 | 0.00 | 0.19 | 0.00 | 59 | 1018.5 |
| 20260507153549 | 66 | 127 | 1.7 | 5.2 | 0.00 | 0.19 | 0.00 | 61 | 1018.6 |
| 20260507153053 | 65 | 65 | 0.0 | 4.3 | 0.00 | 0.19 | 0.00 | 65 | 1018.4 |
| 20260507152549 | 65 | 192 | 0.9 | 5.2 | 0.00 | 0.19 | 0.00 | 62 | 1018.5 |
| 20260507152050 | 64 | 110 | 1.7 | 6.1 | 0.00 | 0.19 | 0.00 | 64 | 1018.6 |
| 20260507151556 | 64 | 169 | 1.7 | 6.1 | 0.00 | 0.19 | 0.00 | 65 | 1018.7 |
| 20260507151052 | 64 | 96 | 0.9 | 4.3 | 0.00 | 0.19 | 0.00 | 68 | 1018.7 |
| 20260507150550 | 65 | 118 | 0.9 | 3.5 | 0.00 | 0.19 | 0.00 | 66 | 1018.7 |
| 20260507150059 | 64 | 0 | 0.9 | 3.5 | 0.00 | 0.19 | 0.00 | 78 | 1018.7 |
| 20260507145552 | 63 | 132 | 0.9 | 3.5 | 0.00 | 0.34 | 0.00 | 72 | 1018.9 |
| 20260507145050 | 63 | 177 | 1.7 | 3.5 | 0.00 | 0.34 | 0.00 | 72 | 1019.0 |
| 20260507144601 | 63 | 238 | 0.9 | 2.6 | 0.00 | 0.34 | 0.00 | 72 | 1019.0 |
| 20260507144053 | 62 | 203 | 0.9 | 4.3 | 0.00 | 0.34 | 0.00 | 77 | 1018.9 |
| 20260507143549 | 62 | 134 | 0.9 | 4.3 | 0.00 | 0.34 | 0.00 | 76 | 1018.8 |
| 20260507143059 | 62 | 124 | 0.9 | 3.5 | 0.00 | 0.34 | 0.00 | 80 | 1018.6 |
| 20260507142551 | 61 | 95 | 0.9 | 3.5 | 0.00 | 0.34 | 0.00 | 78 | 1018.6 |
| 20260507142052 | 61 | 196 | 0.9 | 5.2 | 0.00 | 0.34 | 0.00 | 77 | 1018.6 |
| 20260507141619 | 61 | 93 | 0.9 | 5.2 | 0.00 | 0.34 | 0.00 | 80 | 1018.9 |
| 20260507141049 | 61 | 156 | 0.9 | 3.5 | 0.00 | 0.34 | 0.00 | 80 | 1018.8 |
| 20260507140552 | 60 | 166 | 1.7 | 3.5 | 0.00 | 0.34 | 0.00 | 79 | 1018.8 |
| 20260507140109 | 60 | 188 | 0.9 | 5.2 | 0.00 | 0.34 | 0.00 | 80 | 1018.7 |
| 20260507135555 | 59 | 127 | 0.0 | 5.2 | 0.00 | 0.36 | 0.00 | 84 | 1018.6 |
| 20260507135052 | 59 | 211 | 1.7 | 5.2 | 0.00 | 0.36 | 0.00 | 80 | 1018.7 |
| 20260507134608 | 59 | 153 | 0.9 | 4.3 | 0.00 | 0.36 | 0.00 | 83 | 1018.6 |
| 20260507134051 | 58 | 121 | 0.9 | 4.3 | 0.00 | 0.36 | 0.00 | 85 | 1018.6 |
| 20260507133549 | 58 | 186 | 0.9 | 4.3 | 0.00 | 0.36 | 0.00 | 84 | 1018.5 |